Year,Month,Day,Hour,Minute,Value (Times are PST for temperature in C)
2015,06,26,00,00,19.50
2015,06,26,00,01,19.50
2015,06,26,00,02,19.50
2015,06,26,00,03,19.60
2015,06,26,00,04,19.60
2015,06,26,00,05,19.60
2015,06,26,00,06,19.60
2015,06,26,00,07,19.60
2015,06,26,00,08,19.70
2015,06,26,00,09,19.70
2015,06,26,00,10,19.70
2015,06,26,00,11,19.70
2015,06,26,00,12,19.70
2015,06,26,00,13,19.70
2015,06,26,00,14,19.80
2015,06,26,00,15,19.80
2015,06,26,00,16,19.80
2015,06,26,00,17,19.80
2015,06,26,00,18,19.80
2015,06,26,00,19,19.80
2015,06,26,00,20,19.80
2015,06,26,00,21,19.80
2015,06,26,00,22,19.80
2015,06,26,00,23,19.90
2015,06,26,00,24,19.90
2015,06,26,00,25,19.90
2015,06,26,00,26,19.90
2015,06,26,00,27,19.90
2015,06,26,00,28,19.80
2015,06,26,00,29,19.80
2015,06,26,00,30,19.80
2015,06,26,00,31,19.80
2015,06,26,00,32,19.80
2015,06,26,00,33,19.80
2015,06,26,00,34,19.70
2015,06,26,00,35,19.70
2015,06,26,00,36,19.70
2015,06,26,00,37,19.70
2015,06,26,00,38,19.60
2015,06,26,00,39,19.60
2015,06,26,00,40,19.60
2015,06,26,00,41,19.60
2015,06,26,00,42,19.60
2015,06,26,00,43,19.60
2015,06,26,00,44,19.60
2015,06,26,00,45,19.60
2015,06,26,00,46,19.60
2015,06,26,00,47,19.60
2015,06,26,00,48,19.60
2015,06,26,00,49,19.50
2015,06,26,00,50,19.50
2015,06,26,00,51,19.50
2015,06,26,00,52,19.50
2015,06,26,00,53,19.50
2015,06,26,00,54,19.50
2015,06,26,00,55,19.50
2015,06,26,00,56,19.50
2015,06,26,00,57,19.50
2015,06,26,00,58,19.60
2015,06,26,00,59,19.60
2015,06,26,01,00,19.60
2015,06,26,01,01,19.50
2015,06,26,01,02,19.50
2015,06,26,01,03,19.50
2015,06,26,01,04,19.50
2015,06,26,01,05,19.50
2015,06,26,01,06,19.40
2015,06,26,01,07,19.40
2015,06,26,01,08,19.40
2015,06,26,01,09,19.40
2015,06,26,01,10,19.40
2015,06,26,01,11,19.40
2015,06,26,01,12,19.40
2015,06,26,01,13,19.40
2015,06,26,01,14,19.40
2015,06,26,01,15,19.40
2015,06,26,01,16,19.40
2015,06,26,01,17,19.40
2015,06,26,01,18,19.40
2015,06,26,01,19,19.40
2015,06,26,01,20,19.30
2015,06,26,01,21,19.40
2015,06,26,01,22,19.30
2015,06,26,01,23,19.30
2015,06,26,01,24,19.30
2015,06,26,01,25,19.30
2015,06,26,01,26,19.30
2015,06,26,01,27,19.30
2015,06,26,01,28,19.30
2015,06,26,01,29,19.30
2015,06,26,01,30,19.20
2015,06,26,01,31,19.20
2015,06,26,01,32,19.20
2015,06,26,01,33,19.20
2015,06,26,01,34,19.20
2015,06,26,01,35,19.20
2015,06,26,01,36,19.20
2015,06,26,01,37,19.10
2015,06,26,01,38,19.10
2015,06,26,01,39,19.10
2015,06,26,01,40,19.10
2015,06,26,01,41,19.00
2015,06,26,01,42,19.00
2015,06,26,01,43,18.90
2015,06,26,01,44,18.90
2015,06,26,01,45,18.90
2015,06,26,01,46,18.80
2015,06,26,01,47,18.80
2015,06,26,01,48,18.80
2015,06,26,01,49,18.70
2015,06,26,01,50,18.70
2015,06,26,01,51,18.70
2015,06,26,01,52,18.70
2015,06,26,01,53,18.60
2015,06,26,01,54,18.60
2015,06,26,01,55,18.60
2015,06,26,01,56,18.60
2015,06,26,01,57,18.60
2015,06,26,01,58,18.60
2015,06,26,01,59,18.60
2015,06,26,02,00,18.60
2015,06,26,02,01,18.60
2015,06,26,02,02,18.60
2015,06,26,02,03,18.50
2015,06,26,02,04,18.50
2015,06,26,02,05,18.50
2015,06,26,02,06,18.50
2015,06,26,02,07,18.40
2015,06,26,02,08,18.40
2015,06,26,02,09,18.40
2015,06,26,02,10,18.40
2015,06,26,02,11,18.30
2015,06,26,02,12,18.30
2015,06,26,02,13,18.20
2015,06,26,02,14,18.20
2015,06,26,02,15,18.10
2015,06,26,02,16,18.00
2015,06,26,02,17,17.90
2015,06,26,02,18,17.90
2015,06,26,02,19,17.80
2015,06,26,02,20,17.80
2015,06,26,02,21,17.70
2015,06,26,02,22,17.60
2015,06,26,02,23,17.60
2015,06,26,02,24,17.50
2015,06,26,02,25,17.40
2015,06,26,02,26,17.40
2015,06,26,02,27,17.30
2015,06,26,02,28,17.30
2015,06,26,02,29,17.30
2015,06,26,02,30,17.20
2015,06,26,02,31,17.20
2015,06,26,02,32,17.20
2015,06,26,02,33,17.10
2015,06,26,02,34,17.10
2015,06,26,02,35,17.10
2015,06,26,02,36,17.10
2015,06,26,02,37,17.10
2015,06,26,02,38,17.10
2015,06,26,02,39,17.10
2015,06,26,02,40,17.10
2015,06,26,02,41,17.10
2015,06,26,02,42,17.10
2015,06,26,02,43,17.10
2015,06,26,02,44,17.10
2015,06,26,02,45,17.10
2015,06,26,02,46,17.10
2015,06,26,02,47,17.10
2015,06,26,02,48,17.10
2015,06,26,02,49,17.10
2015,06,26,02,50,17.10
2015,06,26,02,51,17.00
2015,06,26,02,52,17.00
2015,06,26,02,53,17.00
2015,06,26,02,54,17.00
2015,06,26,02,55,17.00
2015,06,26,02,56,17.00
2015,06,26,02,57,17.00
2015,06,26,02,58,17.00
2015,06,26,02,59,17.10
2015,06,26,03,00,17.10
2015,06,26,03,01,17.10
2015,06,26,03,02,17.10
2015,06,26,03,06,17.20
2015,06,26,03,07,17.20
2015,06,26,03,08,17.20
2015,06,26,03,09,17.20
2015,06,26,03,10,17.20
2015,06,26,03,11,17.20
2015,06,26,03,12,17.20
2015,06,26,03,13,17.20
2015,06,26,03,14,17.30
2015,06,26,03,15,17.30
2015,06,26,03,16,17.30
2015,06,26,03,17,17.30
2015,06,26,03,18,17.30
2015,06,26,03,19,17.30
2015,06,26,03,20,17.30
2015,06,26,03,21,17.30
2015,06,26,03,22,17.30
2015,06,26,03,23,17.30
2015,06,26,03,24,17.30
2015,06,26,03,25,17.30
2015,06,26,03,26,17.30
2015,06,26,03,27,17.30
2015,06,26,03,28,17.30
2015,06,26,03,29,17.30
2015,06,26,03,30,17.30
2015,06,26,03,31,17.30
2015,06,26,03,32,17.20
2015,06,26,03,33,17.20
2015,06,26,03,34,17.20
2015,06,26,03,35,17.20
2015,06,26,03,36,17.20
2015,06,26,03,37,17.10
2015,06,26,03,38,17.10
2015,06,26,03,39,17.10
2015,06,26,03,40,17.10
2015,06,26,03,41,17.10
2015,06,26,03,42,17.10
2015,06,26,03,43,17.10
2015,06,26,03,44,17.00
2015,06,26,03,45,17.00
2015,06,26,03,46,17.00
2015,06,26,03,47,17.00
2015,06,26,03,48,17.00
2015,06,26,03,49,17.00
2015,06,26,03,50,17.00
2015,06,26,03,51,17.00
2015,06,26,03,52,17.00
2015,06,26,03,53,17.00
2015,06,26,03,54,17.00
2015,06,26,03,55,17.00
2015,06,26,03,56,17.00
2015,06,26,03,57,17.00
2015,06,26,03,58,17.00
2015,06,26,03,59,17.00
2015,06,26,04,00,17.00
2015,06,26,04,01,17.00
2015,06,26,04,02,17.10
2015,06,26,04,03,17.10
2015,06,26,04,04,17.10
2015,06,26,04,05,17.10
2015,06,26,04,06,17.20
2015,06,26,04,07,17.20
2015,06,26,04,08,17.20
2015,06,26,04,09,17.30
2015,06,26,04,10,17.30
2015,06,26,04,11,17.30
2015,06,26,04,12,17.30
2015,06,26,04,13,17.30
2015,06,26,04,14,17.40
2015,06,26,04,15,17.40
2015,06,26,04,16,17.40
2015,06,26,04,17,17.40
2015,06,26,04,18,17.50
2015,06,26,04,19,17.50
2015,06,26,04,20,17.50
2015,06,26,04,21,17.60
2015,06,26,04,22,17.60
2015,06,26,04,23,17.70
2015,06,26,04,24,17.70
2015,06,26,04,25,17.70
2015,06,26,04,26,17.70
2015,06,26,04,27,17.80
2015,06,26,04,28,17.80
2015,06,26,04,29,17.80
2015,06,26,04,30,17.80
2015,06,26,04,31,17.80
2015,06,26,04,32,17.80
2015,06,26,04,33,17.80
2015,06,26,04,34,17.80
2015,06,26,04,35,17.80
2015,06,26,04,36,17.80
2015,06,26,04,37,17.80
2015,06,26,04,38,17.80
2015,06,26,04,39,17.80
2015,06,26,04,40,17.70
2015,06,26,04,41,17.70
2015,06,26,04,42,17.70
2015,06,26,04,43,17.70
2015,06,26,04,44,17.60
2015,06,26,04,45,17.60
2015,06,26,04,46,17.60
2015,06,26,04,47,17.60
2015,06,26,04,48,17.60
2015,06,26,04,49,17.60
2015,06,26,04,50,17.50
2015,06,26,04,51,17.50
2015,06,26,04,52,17.50
2015,06,26,04,53,17.50
2015,06,26,04,54,17.50
2015,06,26,04,55,17.50
2015,06,26,04,56,17.50
2015,06,26,04,57,17.60
2015,06,26,04,58,17.60
2015,06,26,04,59,17.60
2015,06,26,05,00,17.60
2015,06,26,05,01,17.70
2015,06,26,05,02,17.70
2015,06,26,05,03,17.70
2015,06,26,05,04,17.70
2015,06,26,05,05,17.80
2015,06,26,05,06,17.80
2015,06,26,05,07,17.80
2015,06,26,05,08,17.90
2015,06,26,05,09,17.90
2015,06,26,05,10,17.90
2015,06,26,05,11,17.90
2015,06,26,05,12,17.90
2015,06,26,05,13,18.00
2015,06,26,05,14,18.00
2015,06,26,05,15,18.00
2015,06,26,05,16,18.00
2015,06,26,05,17,18.00
2015,06,26,05,18,18.10
2015,06,26,05,19,18.10
2015,06,26,05,20,18.10
2015,06,26,05,21,18.10
2015,06,26,05,22,18.10
2015,06,26,05,23,18.10
2015,06,26,05,24,18.20
2015,06,26,05,25,18.20
2015,06,26,05,26,18.20
2015,06,26,05,27,18.20
2015,06,26,05,28,18.20
2015,06,26,05,29,18.20
2015,06,26,05,30,18.20
2015,06,26,05,31,18.20
2015,06,26,05,32,18.20
2015,06,26,05,33,18.20
2015,06,26,05,34,18.20
2015,06,26,05,35,18.20
2015,06,26,05,36,18.20
2015,06,26,05,37,18.20
2015,06,26,05,38,18.20
2015,06,26,05,39,18.20
2015,06,26,05,40,18.20
2015,06,26,05,41,18.20
2015,06,26,05,42,18.20
2015,06,26,05,43,18.20
2015,06,26,05,44,18.20
2015,06,26,05,45,18.20
2015,06,26,05,46,18.20
2015,06,26,05,47,18.20
2015,06,26,05,48,18.20
2015,06,26,05,49,18.20
2015,06,26,05,50,18.20
2015,06,26,05,51,18.20
2015,06,26,05,52,18.20
2015,06,26,05,53,18.10
2015,06,26,05,54,18.10
2015,06,26,05,55,18.10
2015,06,26,05,56,18.10
2015,06,26,05,57,18.10
2015,06,26,05,58,18.10
2015,06,26,05,59,18.10
2015,06,26,06,00,18.10
2015,06,26,06,01,18.10
2015,06,26,06,02,18.10
2015,06,26,06,03,18.10
2015,06,26,06,04,18.10
2015,06,26,06,05,18.10
2015,06,26,06,06,18.10
2015,06,26,06,07,18.20
2015,06,26,06,08,18.20
2015,06,26,06,09,18.20
2015,06,26,06,10,18.20
2015,06,26,06,11,18.20
2015,06,26,06,12,18.20
2015,06,26,06,13,18.20
2015,06,26,06,14,18.20
2015,06,26,06,15,18.20
2015,06,26,06,16,18.30
2015,06,26,06,17,18.30
2015,06,26,06,18,18.30
2015,06,26,06,19,18.30
2015,06,26,06,20,18.30
2015,06,26,06,21,18.30
2015,06,26,06,22,18.30
2015,06,26,06,23,18.30
2015,06,26,06,24,18.30
2015,06,26,06,25,18.30
2015,06,26,06,26,18.30
2015,06,26,06,27,18.30
2015,06,26,06,28,18.30
2015,06,26,06,29,18.30
2015,06,26,06,30,18.30
2015,06,26,06,31,18.30
2015,06,26,06,32,18.40
2015,06,26,06,33,18.40
2015,06,26,06,34,18.40
2015,06,26,06,35,18.40
2015,06,26,06,36,18.40
2015,06,26,06,37,18.40
2015,06,26,06,38,18.40
2015,06,26,06,39,18.40
2015,06,26,06,40,18.40
2015,06,26,06,41,18.40
2015,06,26,06,42,18.40
2015,06,26,06,43,18.40
2015,06,26,06,44,18.50
2015,06,26,06,45,18.50
2015,06,26,06,46,18.50
2015,06,26,06,47,18.50
2015,06,26,06,48,18.50
2015,06,26,06,49,18.50
2015,06,26,06,50,18.50
2015,06,26,06,51,18.60
2015,06,26,06,52,18.60
2015,06,26,06,53,18.60
2015,06,26,06,54,18.60
2015,06,26,06,55,18.60
2015,06,26,06,56,18.60
2015,06,26,06,57,18.60
2015,06,26,06,58,18.60
2015,06,26,06,59,18.70
2015,06,26,07,00,18.70
2015,06,26,07,01,18.70
2015,06,26,07,02,18.70
2015,06,26,07,03,18.70
2015,06,26,07,04,18.70
2015,06,26,07,05,18.80
2015,06,26,07,06,18.80
2015,06,26,07,07,18.80
2015,06,26,07,08,18.80
2015,06,26,07,09,18.80
2015,06,26,07,10,18.80
2015,06,26,07,11,18.80
2015,06,26,07,12,18.90
2015,06,26,07,13,18.90
2015,06,26,07,14,18.90
2015,06,26,07,15,18.90
2015,06,26,07,16,18.90
2015,06,26,07,17,18.90
2015,06,26,07,18,18.90
2015,06,26,07,19,18.90
2015,06,26,07,20,18.90
2015,06,26,07,21,18.90
2015,06,26,07,22,18.90
2015,06,26,07,23,18.90
2015,06,26,07,24,18.90
2015,06,26,07,25,18.90
2015,06,26,07,26,18.90
2015,06,26,07,27,18.90
2015,06,26,07,28,18.90
2015,06,26,07,29,18.90
2015,06,26,07,30,18.90
2015,06,26,07,31,18.90
2015,06,26,07,32,19.00
2015,06,26,07,33,19.00
2015,06,26,07,34,19.00
2015,06,26,07,35,19.00
2015,06,26,07,36,19.00
2015,06,26,07,37,19.00
2015,06,26,07,38,19.00
2015,06,26,07,39,19.00
2015,06,26,07,40,19.10
2015,06,26,07,41,19.10
2015,06,26,07,42,19.10
2015,06,26,07,43,19.10
2015,06,26,07,44,19.10
2015,06,26,07,45,19.10
2015,06,26,07,46,19.10
2015,06,26,07,47,19.10
2015,06,26,07,48,19.20
2015,06,26,07,49,19.20
2015,06,26,07,50,19.20
2015,06,26,07,51,19.20
2015,06,26,07,52,19.30
2015,06,26,07,53,19.30
2015,06,26,07,54,19.30
2015,06,26,07,55,19.30
2015,06,26,07,56,19.40
2015,06,26,07,57,19.40
2015,06,26,07,58,19.40
2015,06,26,07,59,19.40
2015,06,26,08,00,19.50
2015,06,26,08,01,19.50
2015,06,26,08,02,19.50
2015,06,26,08,03,19.60
2015,06,26,08,04,19.60
2015,06,26,08,05,19.60
2015,06,26,08,06,19.60
2015,06,26,08,07,19.60
2015,06,26,08,08,19.60
2015,06,26,08,09,19.70
2015,06,26,08,10,19.70
2015,06,26,08,11,19.70
2015,06,26,08,12,19.70
2015,06,26,08,13,19.70
2015,06,26,08,14,19.80
2015,06,26,08,15,19.80
2015,06,26,08,16,19.80
2015,06,26,08,17,19.80
2015,06,26,08,18,19.80
2015,06,26,08,19,19.90
2015,06,26,08,20,19.90
2015,06,26,08,21,19.90
2015,06,26,08,22,19.90
2015,06,26,08,23,19.90
2015,06,26,08,24,19.90
2015,06,26,08,25,19.90
2015,06,26,08,26,20.00
2015,06,26,08,27,20.00
2015,06,26,08,28,20.00
2015,06,26,08,29,20.00
2015,06,26,08,30,20.00
2015,06,26,08,31,20.00
2015,06,26,08,32,20.10
2015,06,26,08,33,20.10
2015,06,26,08,34,20.10
2015,06,26,08,35,20.10
2015,06,26,08,36,20.10
2015,06,26,08,37,20.10
2015,06,26,08,38,20.10
2015,06,26,08,39,20.10
2015,06,26,08,40,20.20
2015,06,26,08,41,20.20
2015,06,26,08,42,20.20
2015,06,26,08,43,20.20
2015,06,26,08,44,20.20
2015,06,26,08,45,20.10
2015,06,26,08,46,20.20
2015,06,26,08,47,20.20
2015,06,26,08,48,20.20
2015,06,26,08,49,20.10
2015,06,26,08,50,20.10
2015,06,26,08,51,20.10
2015,06,26,08,52,20.10
2015,06,26,08,53,20.10
2015,06,26,08,54,20.20
2015,06,26,08,55,20.20
2015,06,26,08,56,20.20
2015,06,26,08,57,20.20
2015,06,26,08,58,20.20
2015,06,26,08,59,20.20
2015,06,26,09,00,20.30
2015,06,26,09,01,20.30
2015,06,26,09,02,20.30
2015,06,26,09,03,20.30
2015,06,26,09,04,20.30
2015,06,26,09,05,20.30
2015,06,26,09,06,20.30
2015,06,26,09,07,20.40
2015,06,26,09,08,20.40
2015,06,26,09,09,20.40
2015,06,26,09,10,20.40
2015,06,26,09,11,20.40
2015,06,26,09,12,20.40
2015,06,26,09,13,20.40
2015,06,26,09,14,20.40
2015,06,26,09,15,20.40
2015,06,26,09,16,20.40
2015,06,26,09,17,20.50
2015,06,26,09,18,20.50
2015,06,26,09,19,20.50
2015,06,26,09,20,20.60
2015,06,26,09,21,20.60
2015,06,26,09,22,20.60
2015,06,26,09,23,20.60
2015,06,26,09,24,20.70
2015,06,26,09,25,20.70
2015,06,26,09,26,20.70
2015,06,26,09,27,20.70
2015,06,26,09,28,20.80
2015,06,26,09,29,20.80
2015,06,26,09,30,20.80
2015,06,26,09,31,20.80
2015,06,26,09,32,20.80
2015,06,26,09,33,20.90
2015,06,26,09,34,20.90
2015,06,26,09,35,20.90
2015,06,26,09,36,21.00
2015,06,26,09,37,21.00
2015,06,26,09,38,21.10
2015,06,26,09,39,21.10
2015,06,26,09,40,21.10
2015,06,26,09,41,21.20
2015,06,26,09,42,21.20
2015,06,26,09,43,21.20
2015,06,26,09,44,21.30
2015,06,26,09,45,21.30
2015,06,26,09,46,21.40
2015,06,26,09,47,21.50
2015,06,26,09,48,21.50
2015,06,26,09,49,21.60
2015,06,26,09,50,21.70
2015,06,26,09,51,21.80
2015,06,26,09,52,21.80
2015,06,26,09,53,21.80
2015,06,26,09,54,21.80
2015,06,26,09,55,21.80
2015,06,26,09,56,21.80
2015,06,26,09,57,21.80
2015,06,26,09,58,21.80
2015,06,26,09,59,21.80
2015,06,26,10,00,21.80
2015,06,26,10,01,21.80
2015,06,26,10,02,21.80
2015,06,26,10,03,21.70
2015,06,26,10,04,21.70
2015,06,26,10,05,21.70
2015,06,26,10,06,21.60
2015,06,26,10,07,21.60
2015,06,26,10,08,21.50
2015,06,26,10,09,21.50
2015,06,26,10,10,21.40
2015,06,26,10,11,21.40
2015,06,26,10,12,21.40
2015,06,26,10,13,21.40
2015,06,26,10,14,21.40
2015,06,26,10,15,21.40
2015,06,26,10,16,21.40
2015,06,26,10,17,21.50
2015,06,26,10,18,21.50
2015,06,26,10,19,21.50
2015,06,26,10,20,21.50
2015,06,26,10,21,21.50
2015,06,26,10,22,21.50
2015,06,26,10,23,21.50
2015,06,26,10,24,21.50
2015,06,26,10,25,21.60
2015,06,26,10,26,21.60
2015,06,26,10,27,21.70
2015,06,26,10,28,21.80
2015,06,26,10,29,21.80
2015,06,26,10,30,21.90
2015,06,26,10,31,21.90
2015,06,26,10,32,21.90
2015,06,26,10,33,21.90
2015,06,26,10,34,22.00
2015,06,26,10,35,22.00
2015,06,26,10,36,22.00
2015,06,26,10,37,22.00
2015,06,26,10,38,22.00
2015,06,26,10,39,22.10
2015,06,26,10,40,22.10
2015,06,26,10,41,22.20
2015,06,26,10,42,22.30
2015,06,26,10,43,22.40
2015,06,26,10,44,22.40
2015,06,26,10,45,22.40
2015,06,26,10,46,22.40
2015,06,26,10,47,22.50
2015,06,26,10,48,22.60
2015,06,26,10,49,22.60
2015,06,26,10,50,22.70
2015,06,26,10,51,22.80
2015,06,26,10,52,22.80
2015,06,26,10,53,22.80
2015,06,26,10,54,22.80
2015,06,26,10,55,22.80
2015,06,26,10,56,22.80
2015,06,26,10,57,22.80
2015,06,26,10,58,22.70
2015,06,26,10,59,22.70
2015,06,26,11,00,22.70
2015,06,26,11,01,22.80
2015,06,26,11,02,22.80
2015,06,26,11,03,22.80
2015,06,26,11,04,22.80
2015,06,26,11,05,22.70
2015,06,26,11,06,22.70
2015,06,26,11,07,22.70
2015,06,26,11,08,22.70
2015,06,26,11,09,22.80
2015,06,26,11,10,22.90
2015,06,26,11,11,23.00
2015,06,26,11,12,23.00
2015,06,26,11,13,23.10
2015,06,26,11,14,23.20
2015,06,26,11,15,23.30
2015,06,26,11,16,23.40
2015,06,26,11,17,23.40
2015,06,26,11,18,23.50
2015,06,26,11,19,23.60
2015,06,26,11,20,23.60
2015,06,26,11,21,23.70
2015,06,26,11,22,23.70
2015,06,26,11,23,23.70
2015,06,26,11,24,23.70
2015,06,26,11,25,23.80
2015,06,26,11,26,23.80
2015,06,26,11,27,23.80
2015,06,26,11,28,23.80
2015,06,26,11,29,23.80
2015,06,26,11,30,23.90
2015,06,26,11,31,23.90
2015,06,26,11,32,23.90
2015,06,26,11,33,24.00
2015,06,26,11,34,24.00
2015,06,26,11,35,24.10
2015,06,26,11,36,24.10
2015,06,26,11,37,24.20
2015,06,26,11,38,24.30
2015,06,26,11,39,24.40
2015,06,26,11,40,24.40
2015,06,26,11,41,24.50
2015,06,26,11,42,24.60
2015,06,26,11,43,24.60
2015,06,26,11,44,24.60
2015,06,26,11,45,24.60
2015,06,26,11,46,24.60
2015,06,26,11,47,24.70
2015,06,26,11,48,24.70
2015,06,26,11,49,24.60
2015,06,26,11,50,24.60
2015,06,26,11,51,24.60
2015,06,26,11,52,24.60
2015,06,26,11,53,24.60
2015,06,26,11,54,24.70
2015,06,26,11,55,24.70
2015,06,26,11,56,24.80
2015,06,26,11,57,24.80
2015,06,26,11,58,24.80
2015,06,26,11,59,24.90
2015,06,26,12,00,24.90
2015,06,26,12,01,25.00
2015,06,26,12,02,25.10
2015,06,26,12,03,25.20
2015,06,26,12,04,25.20
2015,06,26,12,05,25.20
2015,06,26,12,06,25.30
2015,06,26,12,07,25.30
2015,06,26,12,08,25.30
2015,06,26,12,09,25.30
2015,06,26,12,10,25.30
2015,06,26,12,11,25.30
2015,06,26,12,12,25.30
2015,06,26,12,13,25.30
2015,06,26,12,14,25.20
2015,06,26,12,15,25.20
2015,06,26,12,16,25.20
2015,06,26,12,17,25.20
2015,06,26,12,18,25.20
2015,06,26,12,19,25.20
2015,06,26,12,20,25.30
2015,06,26,12,21,25.30
2015,06,26,12,22,25.30
2015,06,26,12,23,25.30
2015,06,26,12,24,25.30
2015,06,26,12,25,25.30
2015,06,26,12,26,25.40
2015,06,26,12,27,25.40
2015,06,26,12,28,25.40
2015,06,26,12,29,25.40
2015,06,26,12,30,25.40
2015,06,26,12,31,25.40
2015,06,26,12,32,25.50
2015,06,26,12,33,25.60
2015,06,26,12,34,25.70
2015,06,26,12,35,25.80
2015,06,26,12,36,25.80
2015,06,26,12,37,25.80
2015,06,26,12,38,25.80
2015,06,26,12,39,25.80
2015,06,26,12,40,25.90
2015,06,26,12,41,26.00
2015,06,26,12,42,26.10
2015,06,26,12,43,26.20
2015,06,26,12,44,26.20
2015,06,26,12,45,26.20
2015,06,26,12,46,26.20
2015,06,26,12,47,26.30
2015,06,26,12,48,26.40
2015,06,26,12,49,26.40
2015,06,26,12,50,26.40
2015,06,26,12,51,26.50
2015,06,26,12,52,26.60
2015,06,26,12,53,26.60
2015,06,26,12,54,26.60
2015,06,26,12,55,26.70
2015,06,26,12,56,26.70
2015,06,26,12,57,26.70
2015,06,26,12,58,26.70
2015,06,26,12,59,26.70
2015,06,26,13,00,26.80
2015,06,26,13,01,26.80
2015,06,26,13,02,26.80
2015,06,26,13,03,26.80
2015,06,26,13,04,26.80
2015,06,26,13,05,26.90
2015,06,26,13,06,26.90
2015,06,26,13,07,27.00
2015,06,26,13,08,27.10
2015,06,26,13,09,27.20
2015,06,26,13,10,27.30
2015,06,26,13,11,27.30
2015,06,26,13,12,27.30
2015,06,26,13,13,27.40
2015,06,26,13,14,27.40
2015,06,26,13,15,27.50
2015,06,26,13,16,27.60
2015,06,26,13,17,27.70
2015,06,26,13,18,27.80
2015,06,26,13,19,27.90
2015,06,26,13,20,28.10
2015,06,26,13,21,28.10
2015,06,26,13,22,28.10
2015,06,26,13,23,28.20
2015,06,26,13,24,28.20
2015,06,26,13,25,28.20
2015,06,26,13,26,28.10
2015,06,26,13,27,27.90
2015,06,26,13,28,27.70
2015,06,26,13,29,27.60
2015,06,26,13,30,27.40
2015,06,26,13,31,27.30
2015,06,26,13,32,27.20
2015,06,26,13,33,27.10
2015,06,26,13,34,27.10
2015,06,26,13,35,27.20
2015,06,26,13,36,27.10
2015,06,26,13,37,27.10
2015,06,26,13,38,27.10
2015,06,26,13,39,27.00
2015,06,26,13,40,27.00
2015,06,26,13,41,27.00
2015,06,26,13,42,26.90
2015,06,26,13,43,26.90
2015,06,26,13,44,26.80
2015,06,26,13,45,26.60
2015,06,26,13,46,26.50
2015,06,26,13,47,26.40
2015,06,26,13,48,26.30
2015,06,26,13,49,26.30
2015,06,26,13,50,26.30
2015,06,26,13,51,26.30
2015,06,26,13,52,26.40
2015,06,26,13,53,26.50
2015,06,26,13,54,26.60
2015,06,26,13,55,26.80
2015,06,26,13,56,26.90
2015,06,26,13,57,27.00
2015,06,26,13,58,27.10
2015,06,26,13,59,27.00
2015,06,26,14,00,27.00
2015,06,26,14,01,27.00
2015,06,26,14,02,27.00
2015,06,26,14,03,27.00
2015,06,26,14,04,27.00
2015,06,26,14,05,27.10
2015,06,26,14,06,27.00
2015,06,26,14,07,27.10
2015,06,26,14,08,27.10
2015,06,26,14,09,27.30
2015,06,26,14,10,27.40
2015,06,26,14,11,27.60
2015,06,26,14,12,27.70
2015,06,26,14,13,27.90
2015,06,26,14,14,28.00
2015,06,26,14,15,28.10
2015,06,26,14,16,28.10
2015,06,26,14,17,28.10
2015,06,26,14,18,28.20
2015,06,26,14,19,28.30
2015,06,26,14,20,28.40
2015,06,26,14,21,28.40
2015,06,26,14,22,28.40
2015,06,26,14,23,28.50
2015,06,26,14,24,28.60
2015,06,26,14,25,28.60
2015,06,26,14,26,28.60
2015,06,26,14,27,28.60
2015,06,26,14,28,28.70
2015,06,26,14,29,28.70
2015,06,26,14,30,28.60
2015,06,26,14,31,28.70
2015,06,26,14,32,28.80
2015,06,26,14,33,29.00
2015,06,26,14,34,29.20
2015,06,26,14,35,29.30
2015,06,26,14,36,29.50
2015,06,26,14,37,29.60
2015,06,26,14,38,29.60
2015,06,26,14,39,29.70
2015,06,26,14,40,29.70
2015,06,26,14,41,29.70
2015,06,26,14,42,29.70
2015,06,26,14,43,29.70
2015,06,26,14,44,29.60
2015,06,26,14,45,29.60
2015,06,26,14,46,29.50
2015,06,26,14,47,29.50
2015,06,26,14,48,29.40
2015,06,26,14,49,29.40
2015,06,26,14,50,29.30
2015,06,26,14,51,29.30
2015,06,26,14,52,29.30
2015,06,26,14,53,29.30
2015,06,26,14,54,29.20
2015,06,26,14,55,29.10
2015,06,26,14,56,29.00
2015,06,26,14,57,28.90
2015,06,26,14,58,28.90
2015,06,26,14,59,28.90
2015,06,26,15,00,28.90
2015,06,26,15,01,28.90
2015,06,26,15,02,28.90
2015,06,26,15,03,28.90
2015,06,26,15,04,28.90
2015,06,26,15,05,28.90
2015,06,26,15,06,28.90
2015,06,26,15,07,29.00
2015,06,26,15,08,29.00
2015,06,26,15,09,29.00
2015,06,26,15,10,29.00
2015,06,26,15,11,28.90
2015,06,26,15,12,28.90
2015,06,26,15,13,28.90
2015,06,26,15,14,28.90
2015,06,26,15,15,28.90
2015,06,26,15,16,28.90
2015,06,26,15,17,28.90
2015,06,26,15,18,29.00
2015,06,26,15,19,29.00
2015,06,26,15,20,29.10
2015,06,26,15,21,29.10
2015,06,26,15,22,29.20
2015,06,26,15,23,29.20
2015,06,26,15,24,29.20
2015,06,26,15,25,29.10
2015,06,26,15,26,29.10
2015,06,26,15,27,29.00
2015,06,26,15,28,28.90
2015,06,26,15,29,28.90
2015,06,26,15,30,28.90
2015,06,26,15,31,29.00
2015,06,26,15,32,29.10
2015,06,26,15,33,29.20
2015,06,26,15,34,29.30
2015,06,26,15,35,29.30
2015,06,26,15,36,29.40
2015,06,26,15,37,29.50
2015,06,26,15,38,29.60
2015,06,26,15,39,29.70
2015,06,26,15,40,29.70
2015,06,26,15,41,29.60
2015,06,26,15,42,29.60
2015,06,26,15,43,29.70
2015,06,26,15,44,29.70
2015,06,26,15,45,29.70
2015,06,26,15,46,29.70
2015,06,26,15,47,29.70
2015,06,26,15,48,29.80
2015,06,26,15,49,29.80
2015,06,26,15,50,29.70
2015,06,26,15,51,29.70
2015,06,26,15,52,29.70
2015,06,26,15,53,29.70
2015,06,26,15,54,29.80
2015,06,26,15,55,29.80
2015,06,26,15,56,29.70
2015,06,26,15,57,29.70
2015,06,26,15,58,29.60
2015,06,26,15,59,29.60
2015,06,26,16,00,29.60
2015,06,26,16,01,29.50
2015,06,26,16,02,29.50
2015,06,26,16,03,29.40
2015,06,26,16,04,29.40
2015,06,26,16,05,29.40
2015,06,26,16,06,29.30
2015,06,26,16,07,29.20
2015,06,26,16,08,29.20
2015,06,26,16,09,29.20
2015,06,26,16,10,29.20
2015,06,26,16,11,29.20
2015,06,26,16,12,29.30
2015,06,26,16,13,29.40
2015,06,26,16,14,29.50
2015,06,26,16,15,29.60
2015,06,26,16,16,29.60
2015,06,26,16,17,29.70
2015,06,26,16,18,29.70
2015,06,26,16,19,29.70
2015,06,26,16,20,29.60
2015,06,26,16,21,29.50
2015,06,26,16,22,29.40
2015,06,26,16,23,29.20
2015,06,26,16,24,29.20
2015,06,26,16,25,29.20
2015,06,26,16,26,29.10
2015,06,26,16,27,29.00
2015,06,26,16,28,29.00
2015,06,26,16,29,29.00
2015,06,26,16,30,29.00
2015,06,26,16,31,28.90
2015,06,26,16,32,28.80
2015,06,26,16,33,28.80
2015,06,26,16,34,28.80
2015,06,26,16,35,28.80
2015,06,26,16,36,28.70
2015,06,26,16,37,28.60
2015,06,26,16,38,28.40
2015,06,26,16,39,28.30
2015,06,26,16,40,28.20
2015,06,26,16,41,28.20
2015,06,26,16,42,28.20
2015,06,26,16,43,28.20
2015,06,26,16,44,28.20
2015,06,26,16,45,28.20
2015,06,26,16,46,28.10
2015,06,26,16,47,28.00
2015,06,26,16,48,27.90
2015,06,26,16,49,27.80
2015,06,26,16,50,27.80
2015,06,26,16,51,27.70
2015,06,26,16,52,27.70
2015,06,26,16,53,27.80
2015,06,26,16,54,27.90
2015,06,26,16,55,27.90
2015,06,26,16,56,28.00
2015,06,26,16,57,28.00
2015,06,26,16,58,28.10
2015,06,26,16,59,28.20
2015,06,26,17,00,28.30
2015,06,26,17,01,28.40
2015,06,26,17,02,28.50
2015,06,26,17,03,28.70
2015,06,26,17,04,28.70
2015,06,26,17,05,28.80
2015,06,26,17,06,28.90
2015,06,26,17,07,29.00
2015,06,26,17,08,29.00
2015,06,26,17,09,29.10
2015,06,26,17,10,29.10
2015,06,26,17,11,29.10
2015,06,26,17,12,29.10
2015,06,26,17,13,29.10
2015,06,26,17,14,29.20
2015,06,26,17,15,29.20
2015,06,26,17,16,29.30
2015,06,26,17,17,29.40
2015,06,26,17,18,29.50
2015,06,26,17,19,29.50
2015,06,26,17,20,29.50
2015,06,26,17,21,29.40
2015,06,26,17,22,29.30